Regional Weather Roundup
Issued by NWS

Home | Current Version | Previous Version | Graphics & Text | Print | Product List | Glossary On
Versions: 1 2 3 4 5 6 7 8 9 10 11 12 13 14 15 16 17 18 19 20 21 22 23 24 25 26 27 28 29 30 31 32 33 34 35 36 37 38 39 40 41 42 43 44 45 46 47 48 49 50
000
ASUS43 KDMX 251301
RWRIA

WEATHER ROUNDUP FOR IOWA
NATIONAL WEATHER SERVICE DES MOINES IA
800 AM CDT THU MAY 25 2017

NOTE: "FAIR" INDICATES FEW OR NO CLOUDS BELOW 12,000 FEET WITH NO
SIGNIFICANT WEATHER AND/OR OBSTRUCTIONS TO VISIBILITY.

* - THESE STATIONS ARE NOT NWS STATIONS...THUS NOT UNDER NWS
QUALITY CONTROL.  THEY ALSO DO NOT REPORT WEATHER SUCH
AS PRECIPITATION OR FOG.

IAZ001>003-012>014-020>022-031>034-043>046-251400-
   NORTHWEST IOWA

CITY           SKY/WX    TMP DP  RH WIND       PRES   REMARKS
CARROLL *      SUNNY     55  52  88 S9        29.68S
CHEROKEE *     SUNNY     54  51  89 S10       29.68R
DENISON *      SUNNY     55  48  76 S10       29.69S
LE MARS *      MOSUNNY   55  48  76 S10G20    29.66R
ORANGE CITY *  MOSUNNY   54  48  82 S10       29.66R
SHELDON *      SUNNY     55  48  76 S15       29.65R
SIOUX CITY     SUNNY     54  50  86 SE12      29.64R
SPENCER        SUNNY     54  50  86 S12       29.68R
STORM LAKE *   SUNNY     54  48  82 S14       29.67R
$$

IAZ055>058-069>071-079>083-090>094-251400-
   SOUTHWEST IOWA

CITY           SKY/WX    TMP DP  RH WIND       PRES   REMARKS
ATLANTIC *     SUNNY     55  50  82 VRB6      29.69R
AUDUBON *      SUNNY     54  52  94 S5        29.69S
CLARINDA *     SUNNY     55  54  94 S6        29.71S
COUNCIL BLFS * SUNNY     55  52  88 S9        29.68R
CRESTON *      SUNNY     54  52  94 SE9       29.71S
HARLAN  *      SUNNY     55  52  88 S9        29.71R
LAMONI         SUNNY     54  50  86 SE6       29.71S
RED OAK *      SUNNY     55  50  82 S9        29.69R
SHENANDOAH *   SUNNY     55  50  82 S12       29.69R
$$

IAZ047>049-059>061-072>074-084-251400-
   CENTRAL IOWA

CITY           SKY/WX    TMP DP  RH WIND       PRES   REMARKS
AMES           SUNNY     51  50  96 SE5       29.70F
ANKENY *       SUNNY     54  52  94 CALM      29.72R
BOONE *        SUNNY     55  52  88 SE7       29.70S
CHARITON *     SUNNY     54  50  87 CALM      29.72R
DES MOINES     SUNNY     55  49  80 SE5       29.71R
GRINNELL*      SUNNY     51  50  96 CALM      29.73S
KNOXVILLE *    SUNNY     54  50  87 E5        29.70F
MARSHALLTOWN   SUNNY     52  51  97 E3        29.71S
NEWTON *         N/A     52  50  93 E7        29.71S
PELLA *        SUNNY     55  50  85 CALM      29.72F
PERRY *          N/A     51  51  98 SE5       29.70R
$$

IAZ004>006-015-016-023>025-035-036-251400-
   NORTH CENTRAL IOWA

CITY           SKY/WX    TMP DP  RH WIND       PRES   REMARKS
ALGONA *       SUNNY     55  52  88 SE10      29.69S
CLARION *      SUNNY     55  52  88 SE8       29.71R
ESTHERVILLE    SUNNY     52  51  97 SE9       29.68R
FORT DODGE *   SUNNY     54  50  87 SE7       29.70S
MASON CITY     SUNNY     53  50  89 SE7       29.72F
FOREST CITY *    N/A     54  46  76 SE5       29.72R
WEBSTER CITY * SUNNY     55  50  82 S8        29.69R
IOWA FALLS *     N/A     52  51  97 E3        29.72S
$$

IAZ007>011-017>019-026>030-037>042-050>054-066-251400-
   NORTHEAST IOWA

CITY           SKY/WX    TMP DP  RH WIND       PRES   REMARKS
CEDAR RAPIDS   SUNNY     52  51  97 N6        29.70R
CHARLES CITY * SUNNY     52  52 100 E5        29.72F
CLINTON *      CLOUDY    54  51  90 N12       29.69R
DECORAH *      CLOUDY    52  48  87 CALM      29.71S
DUBUQUE        CLOUDY    52  50  93 N10       29.69R
MONTICELLO *   CLOUDY    54  50  87 N8        29.70R
OELWEIN *      CLOUDY    50  50 100 NE7       29.72S
WATERLOO       SUNNY     51  49  92 CALM      29.71F
$$

IAZ064-065-067-068-078-251400-
   EAST CENTRAL IOWA

CITY           SKY/WX    TMP DP  RH WIND       PRES   REMARKS
DAVENPORT      CLOUDY    53  50  89 N7        29.69R
IOWA CITY      SUNNY     55  49  80 N6        29.73R
MT. PLEASANT * SUNNY     53  52  95 W6        29.72R
MUSCATINE *    SUNNY     55  50  82 N7        29.71R
QUAD CITIES    CLOUDY    55  50  83 N3        29.68R
$$

IAZ062-063-075>077-085>089-095>099-251400-
   SOUTHEAST IOWA

CITY           SKY/WX    TMP DP  RH WIND       PRES   REMARKS
BURLINGTON     SUNNY     54  52  93 NW8       29.70R
FAIRFIELD *    SUNNY     54  50  87 NW6       29.72S
FORT MADISON * SUNNY     54  52  94 NW8       29.72R
KEOKUK *       SUNNY     54  52  94 W6        29.71R
OSKALOOSA *      N/A     53  50  90 CALM      29.72F
OTTUMWA        SUNNY     54  51  90 N3        29.72S
WASHINGTON *   SUNNY     54  52  94 NW5       29.73R
$$

ABBREVIATIONS USED IN REMARKS
   TC - TEMPERATURES IN CELSIUS
  WCI - WIND CHILL INDEX
   HX - HEAT INDEX
  VSB - VISIBILITY
$$




USA.gov is the U.S. government's official web portal to all federal, state and local government web resources and services.